Weather in Nashville

United States     36°09′53″N   86°46′59″W
В апреле 2022 года жителям России запретили посещать сайт meteo.paraplan.net по решению Генеральной прокуратуры. Аудитория сайта уменьшилась в 10 раз. Владельцы сайта не видят смысла в поддержке погодного сервера в таких условиях. Сайт будет закрыт в октябре.
temp.,
°C
wind,
m/s
gust,
m/s
humid.,
%
clouds,
%
prec.,
mm/h
press.,
hPa
HPBL,
m
4 october, tue
tue401:00+14ene39520 0.0 1021283
04:00+12ne26580 0.0 1021178
07:00+11ne25550 0.0 1022176
10:00+16ne34360 0.0 1023566
13:00+22ne34220 0.0 10211077
16:00+23nne33210 0.0 10191234
19:00+18nne25370 0.0 1019118
22:00+15ne24410 0.0 102098
5 october, wed
wed501:00+14ne13430 0.0 102089
04:00+12ne12460 0.0 102041
07:00+11ne11470 0.0 102128
10:00+19ene12285 0.0 1021423
13:00+24ne222349 0.0 10201177
16:00+24nne22265 0.0 10181508
19:00+20ne23410 0.0 101969
22:00+18ese11450 0.0 101918
6 october, thu
thu601:00+16se11500 0.0 101911
04:00+15sse115493 0.0 101815
07:00+14ssw11565 0.0 101920
10:00+21ssw23354 0.0 1020466
13:00+27sw34203 0.0 10181332
16:00+28wsw36210 0.0 10162243
19:00+23sw11333 0.0 101712
22:00+21wnw113981 0.0 101823
7 october, fri
fri701:00+19nne004191 0.0 101811
04:00+18wnw11450 0.0 101811
07:00+16nw27610 0.0 1020187
10:00+19n46520 0.0 1023632
13:00+22nnw45460 0.0 10221328
16:00+22n56404 0.0 10221692
19:00+17n48360 0.0 1024628
22:00+14nne310385 0.0 1025381
8 october, sat
sat801:00+11nne39420 0.0 1026294
04:00+9nne37470 0.0 1027240
07:00+8ne26530 0.0 1028201
10:00+14ne24370 0.0 1028739
13:00+18nne33260 0.0 10261369
16:00+19n33240 0.0 10241404
19:00+15ene12330 0.0 102432
22:00+13n12380 0.0 102540